QPF
0.01 0.01 0.01 0.01 0.01 0.01 0.01 0.01 0.01 0.01 0.01 0.01 0.01 0.01 0.01 0.01 0.02 0.02 0.03 0.03 0.03 0.06 0.07 0.06 0.07 0.05 0.04 0.04 0.03 0.02 0.02 0.02 0.02 0.03 0.03 0.03 0.02 0.04 0.06 0.04 0.03 0.04 0.03
0.02 0.02 0.01 0.01 0.01 0.01 0.01 0.01 0.00 0.01 0.01 0.01 0.01 0.02 0.02 0.02 0.02 0.02 0.01 0.01 0.02 0.03 0.04 0.05 0.05 0.05 0.04 0.04 0.03 0.03 0.03 0.02 0.02 0.02 0.03 0.03 0.02 0.03 0.03 0.04 0.04 0.03 0.02
0.02 0.01 0.02 0.02 0.01 0.01 0.01 0.00 0.00 0.00 0.02 0.01 0.01 0.01 0.02 0.02 0.02 0.03 0.02 0.01 0.01 0.02 0.02 0.03 0.04 0.04 0.04 0.03 0.03 0.04 0.03 0.02 0.02 0.01 0.02 0.01 0.02 0.03 0.04 0.03 0.02 0.02 0.03
0.01 0.02 0.03 0.02 0.02 0.02 0.02 0.01 0.00 0.01 0.01 0.02 0.02 0.01 0.02 0.02 0.02 0.01 0.01 0.01 0.01 0.02 0.02 0.02 0.04 0.05 0.04 0.03 0.04 0.05 0.04 0.03 0.02 0.01 0.02 0.02 0.01 0.02 0.02 0.02 0.02 0.02 0.02
0.01 0.02 0.02 0.02 0.02 0.03 0.03 0.01 0.01 0.01 0.01 0.01 0.01 0.01 0.01 0.01 0.01 0.00 0.00 0.01 0.02 0.02 0.02 0.02 0.04 0.08 0.07 0.04 0.06 0.06 0.06 0.05 0.03 0.03 0.02 0.01 0.01 0.01 0.01 0.01 0.02 0.01 0.01
0.01 0.01 0.01 0.02 0.02 0.02 0.02 0.01 0.01 0.00 0.01 0.01 0.01 0.00 0.00 0.01 0.00 0.00 0.00 0.01 0.02 0.03 0.02 0.01 0.02 0.06 0.04 0.05 0.06 0.07 0.07 0.08 0.04 0.04 0.03 0.02 0.01 0.01 0.02 0.02 0.02 0.01 0.02
0.01 0.01 0.01 0.01 0.01 0.01 0.02 0.01 0.01 0.01 0.01 0.01 0.01 0.01 0.01 0.01 0.01 0.01 0.01 0.01 0.02 0.02 0.02 0.01 0.02 0.02 0.02 0.02 0.04 0.07 0.07 0.07 0.06 0.05 0.03 0.02 0.02 0.01 0.01 0.02 0.02 0.02 0.01
0.01 0.00 0.01 0.01 0.01 0.01 0.01 0.01 0.00 0.01 0.01 0.01 0.01 0.01 0.01 0.02 0.02 0.01 0.01 0.01 0.02 0.02 0.02 0.01 0.02 0.01 0.02 0.02 0.02 0.03 0.04 0.04 0.04 0.05 0.04 0.03 0.02 0.01 0.01 0.02 0.02 0.02 0.02
0.02 0.01 0.01 0.01 0.01 0.01 0.01 0.01 0.00 0.00 0.01 0.01 0.02 0.01 0.02 0.02 0.02 0.02 0.01 0.02 0.02 0.02 0.02 0.01 0.01 0.01 0.01 0.01 0.01 0.01 0.01 0.01 0.03 0.03 0.04 0.03 0.03 0.02 0.02 0.01 0.02 0.02 0.02
0.02 0.03 0.02 0.01 0.01 0.01 0.01 0.01 0.00 0.01 0.01 0.01 0.02 0.01 0.01 0.01 0.01 0.03 0.03 0.03 0.02 0.02 0.02 0.01 0.01 0.01 0.00 0.01 0.01 0.01 0.01 0.01 0.03 0.03 0.03 0.04 0.04 0.03 0.03 0.03 0.02 0.02 0.01
0.01 0.03 0.02 0.01 0.01 0.01 0.01 0.01 0.01 0.01 0.01 0.01 0.01 0.01 0.01 0.01 0.01 0.02 0.03 0.03 0.02 0.02 0.01 0.01 0.00 0.00 0.00 0.00 0.01 0.01 0.00 0.01 0.01 0.03 0.04 0.05 0.05 0.04 0.04 0.04 0.03 0.03 0.03
0.01 0.01 0.01 0.02 0.01 0.01 0.01 0.01 0.01 0.01 0.01 0.01 0.01 0.01 0.02 0.02 0.02 0.03 0.02 0.02 0.02 0.02 0.01 0.01 0.00 0.00 0.00 0.00 0.00 0.00 0.00 0.01 0.01 0.02 0.02 0.04 0.05 0.04 0.03 0.04 0.04 0.04 0.04
0.01 0.01 0.01 0.01 0.01 0.01 0.00 0.00 0.01 0.00 0.00 0.00 0.00 0.01 0.02 0.04 0.03 0.04 0.03 0.02 0.02 0.01 0.01 0.01 0.01 0.01 0.00 0.00 0.00 0.00 0.00 0.01 0.02 0.02 0.02 0.02 0.03 0.03 0.03 0.04 0.06 0.07 0.06
0.00 0.01 0.01 0.01 0.01 0.01 0.01 0.00 0.00 0.00 0.00 0.00 0.00 0.00 0.01 0.02 0.03 0.03 0.03 0.02 0.02 0.02 0.01 0.01 0.01 0.01 0.01 0.00 0.00 0.00 0.00 0.01 0.03 0.04 0.03 0.03 0.04 0.04 0.02 0.03 0.06 0.09 0.11
0.01 0.01 0.01 0.01 0.01 0.01 0.01 0.01 0.00 0.00 0.01 0.01 0.01 0.00 0.01 0.02 0.02 0.02 0.02 0.01 0.02 0.02 0.02 0.02 0.01 0.01 0.01 0.00 0.00 0.00 0.00 0.00 0.01 0.03 0.04 0.04 0.05 0.05 0.05 0.05 0.05 0.06 0.08
0.01 0.01 0.01 0.01 0.01 0.01 0.01 0.01 0.01 0.01 0.01 0.01 0.01 0.01 0.01 0.01 0.02 0.02 0.02 0.01 0.01 0.02 0.02 0.02 0.01 0.00 0.00 0.00 0.00 0.00 0.00 0.00 0.01 0.02 0.03 0.03 0.05 0.06 0.05 0.05 0.06 0.06 0.04
0.01 0.01 0.02 0.02 0.01 0.01 0.01 0.01 0.01 0.01 0.01 0.01 0.01 0.01 0.01 0.01 0.01 0.01 0.01 0.01 0.01 0.01 0.02 0.02 0.01 0.01 0.00 0.00 0.00 0.00 0.00 0.00 0.00 0.01 0.02 0.02 0.03 0.05 0.07 0.06 0.04 0.04 0.03
0.01 0.01 0.02 0.02 0.02 0.01 0.01 0.01 0.01 0.01 0.01 0.01 0.01 0.01 0.01 0.01 0.01 0.01 0.01 0.01 0.01 0.01 0.01 0.02 0.02 0.01 0.01 0.00 0.00 0.00 0.00 0.00 0.00 0.00 0.00 0.01 0.02 0.02 0.04 0.05 0.04 0.02 0.02
0.01 0.02 0.03 0.03 0.02 0.02 0.01 0.01 0.01 0.01 0.01 0.01 0.01 0.01 0.01 0.00 0.01 0.01 0.01 0.01 0.01 0.01 0.01 0.01 0.01 0.02 0.01 0.01 0.01 0.01 0.01 0.00 0.00 0.00 0.00 0.00 0.01 0.01 0.02 0.02 0.02 0.02 0.02
0.01 0.01 0.02 0.02 0.02 0.02 0.01 0.01 0.01 0.02 0.02 0.02 0.01 0.01 0.00 0.00 0.01 0.01 0.01 0.01 0.01 0.01 0.01 0.01 0.01 0.01 0.01 0.02 0.01 0.01 0.01 0.01 0.01 0.00 0.00 0.00 0.01 0.01 0.01 0.02 0.01 0.02 0.02
0.01 0.01 0.02 0.01 0.02 0.02 0.02 0.01 0.01 0.02 0.02 0.02 0.02 0.02 0.01 0.00 0.01 0.01 0.01 0.01 0.01 0.01 0.01 0.01 0.01 0.01 0.01 0.01 0.02 0.01 0.01 0.00 0.01 0.00 0.00 0.00 0.01 0.01 0.01 0.02 0.02 0.01 0.02
0.01 0.01 0.02 0.02 0.02 0.02 0.03 0.03 0.03 0.03 0.03 0.03 0.02 0.02 0.01 0.01 0.01 0.01 0.01 0.01 0.01 0.01 0.01 0.01 0.01 0.01 0.01 0.01 0.01 0.01 0.01 0.01 0.01 0.00 0.00 0.00 0.01 0.01 0.01 0.01 0.02 0.01 0.01
0.02 0.02 0.02 0.03 0.03 0.03 0.03 0.03 0.03 0.03 0.03 0.02 0.02 0.02 0.01 0.01 0.01 0.01 0.01 0.01 0.01 0.01 0.01 0.01 0.01 0.01 0.01 0.01 0.01 0.01 0.01 0.01 0.01 0.01 0.01 0.00 0.00 0.00 0.00 0.01 0.01 0.02 0.01
0.02 0.01 0.01 0.02 0.03 0.04 0.03 0.02 0.03 0.02 0.02 0.02 0.02 0.02 0.02 0.01 0.01 0.01 0.00 0.00 0.00 0.00 0.01 0.01 0.01 0.01 0.01 0.01 0.01 0.01 0.01 0.02 0.02 0.02 0.01 0.01 0.00 0.00 0.00 0.00 0.00 0.01 0.01
0.02 0.01 0.01 0.02 0.02 0.03 0.03 0.02 0.02 0.01 0.01 0.02 0.02 0.03 0.02 0.01 0.02 0.02 0.01 0.00 0.00 0.00 0.01 0.01 0.01 0.01 0.01 0.01 0.01 0.01 0.01 0.02 0.03 0.03 0.03 0.02 0.01 0.00 0.00 0.00 0.00 0.01 0.01
0.02 0.02 0.02 0.02 0.02 0.03 0.03 0.03 0.02 0.01 0.01 0.01 0.02 0.02 0.03 0.03 0.02 0.02 0.01 0.01 0.00 0.00 0.00 0.01 0.01 0.01 0.01 0.01 0.01 0.01 0.01 0.02 0.03 0.03 0.03 0.03 0.02 0.01 0.01 0.00 0.00 0.00 0.01
MSLP
1012.69 1012.84 1012.94 1013.00 1013.04 1013.08 1013.13 1013.18 1013.22 1013.24 1013.19 1013.09 1012.92 1012.72 1012.51 1012.34 1012.23 1012.22 1012.29 1012.43 1012.59 1012.75 1012.86 1012.91 1012.89 1012.82 1012.71 1012.60 1012.52 1012.46 1012.43 1012.42 1012.42 1012.40 1012.36 1012.29 1012.20 1012.11 1012.01 1011.91 1011.80 1011.68 1011.53
1012.94 1013.04 1013.11 1013.15 1013.18 1013.21 1013.26 1013.31 1013.35 1013.34 1013.27 1013.13 1012.92 1012.67 1012.41 1012.19 1012.04 1011.98 1012.01 1012.12 1012.27 1012.41 1012.52 1012.58 1012.56 1012.49 1012.39 1012.27 1012.18 1012.11 1012.07 1012.06 1012.04 1012.02 1011.97 1011.90 1011.81 1011.72 1011.62 1011.53 1011.44 1011.33 1011.20
1013.13 1013.18 1013.21 1013.22 1013.24 1013.27 1013.31 1013.36 1013.39 1013.37 1013.28 1013.11 1012.86 1012.57 1012.27 1012.00 1011.80 1011.69 1011.68 1011.75 1011.87 1012.00 1012.11 1012.16 1012.15 1012.09 1012.00 1011.89 1011.80 1011.73 1011.68 1011.64 1011.61 1011.57 1011.51 1011.42 1011.33 1011.23 1011.13 1011.05 1010.98 1010.91 1010.81
1013.28 1013.29 1013.28 1013.26 1013.26 1013.27 1013.30 1013.34 1013.35 1013.32 1013.21 1013.02 1012.76 1012.44 1012.11 1011.80 1011.56 1011.41 1011.35 1011.38 1011.46 1011.55 1011.64 1011.69 1011.69 1011.64 1011.56 1011.47 1011.39 1011.31 1011.25 1011.20 1011.14 1011.07 1010.98 1010.88 1010.76 1010.66 1010.57 1010.50 1010.45 1010.41 1010.35
1013.42 1013.38 1013.33 1013.28 1013.25 1013.24 1013.26 1013.27 1013.27 1013.22 1013.09 1012.89 1012.62 1012.29 1011.94 1011.61 1011.34 1011.14 1011.04 1011.01 1011.03 1011.09 1011.15 1011.18 1011.18 1011.14 1011.08 1011.01 1010.94 1010.87 1010.80 1010.74 1010.65 1010.55 1010.43 1010.30 1010.16 1010.04 1009.95 1009.89 1009.86 1009.85 1009.83
1013.58 1013.49 1013.40 1013.32 1013.26 1013.22 1013.21 1013.20 1013.17 1013.10 1012.96 1012.75 1012.48 1012.15 1011.80 1011.46 1011.16 1010.92 1010.76 1010.66 1010.62 1010.62 1010.62 1010.63 1010.62 1010.59 1010.54 1010.50 1010.44 1010.39 1010.33 1010.25 1010.15 1010.02 1009.87 1009.71 1009.55 1009.42 1009.32 1009.27 1009.25 1009.25 1009.26
1013.78 1013.66 1013.53 1013.42 1013.32 1013.25 1013.20 1013.15 1013.09 1013.00 1012.85 1012.64 1012.37 1012.05 1011.70 1011.35 1011.03 1010.75 1010.52 1010.35 1010.23 1010.15 1010.09 1010.04 1010.00 1009.97 1009.94 1009.92 1009.89 1009.86 1009.81 1009.73 1009.62 1009.48 1009.31 1009.13 1008.95 1008.80 1008.69 1008.63 1008.62 1008.62 1008.63
1014.04 1013.88 1013.73 1013.59 1013.47 1013.36 1013.27 1013.18 1013.09 1012.96 1012.80 1012.58 1012.31 1012.01 1011.66 1011.31 1010.96 1010.64 1010.34 1010.08 1009.86 1009.68 1009.54 1009.42 1009.35 1009.30 1009.28 1009.27 1009.27 1009.27 1009.25 1009.18 1009.08 1008.94 1008.76 1008.56 1008.37 1008.21 1008.09 1008.01 1007.98 1007.98 1007.97
1014.35 1014.18 1014.01 1013.85 1013.70 1013.56 1013.43 1013.30 1013.17 1013.01 1012.83 1012.60 1012.34 1012.04 1011.71 1011.35 1010.97 1010.59 1010.22 1009.86 1009.54 1009.25 1009.00 1008.81 1008.67 1008.59 1008.57 1008.58 1008.60 1008.63 1008.63 1008.60 1008.51 1008.38 1008.20 1008.01 1007.82 1007.64 1007.50 1007.41 1007.35 1007.31 1007.27
1014.72 1014.54 1014.36 1014.19 1014.02 1013.85 1013.68 1013.51 1013.34 1013.15 1012.94 1012.71 1012.45 1012.16 1011.83 1011.47 1011.07 1010.63 1010.18 1009.73 1009.29 1008.88 1008.53 1008.24 1008.03 1007.91 1007.86 1007.87 1007.91 1007.97 1008.00 1007.99 1007.92 1007.81 1007.65 1007.46 1007.27 1007.09 1006.93 1006.81 1006.72 1006.64 1006.57
1015.12 1014.94 1014.76 1014.58 1014.39 1014.19 1013.99 1013.79 1013.57 1013.35 1013.13 1012.89 1012.63 1012.35 1012.03 1011.66 1011.25 1010.77 1010.26 1009.71 1009.17 1008.65 1008.18 1007.79 1007.51 1007.32 1007.23 1007.22 1007.26 1007.32 1007.36 1007.37 1007.33 1007.22 1007.08 1006.90 1006.72 1006.53 1006.37 1006.23 1006.10 1005.98 1005.86
1015.52 1015.35 1015.17 1014.98 1014.78 1014.57 1014.34 1014.10 1013.85 1013.61 1013.36 1013.12 1012.87 1012.61 1012.30 1011.95 1011.52 1011.02 1010.46 1009.84 1009.21 1008.59 1008.02 1007.54 1007.16 1006.91 1006.76 1006.71 1006.72 1006.76 1006.79 1006.79 1006.75 1006.65 1006.51 1006.34 1006.16 1005.98 1005.80 1005.65 1005.50 1005.34 1005.19
1015.91 1015.74 1015.57 1015.39 1015.18 1014.95 1014.70 1014.43 1014.15 1013.89 1013.63 1013.39 1013.15 1012.91 1012.63 1012.30 1011.88 1011.38 1010.79 1010.14 1009.44 1008.75 1008.09 1007.52 1007.06 1006.72 1006.51 1006.39 1006.35 1006.34 1006.33 1006.30 1006.22 1006.10 1005.95 1005.77 1005.59 1005.40 1005.22 1005.06 1004.90 1004.73 1004.55
1016.28 1016.13 1015.97 1015.78 1015.57 1015.32 1015.05 1014.76 1014.46 1014.18 1013.92 1013.68 1013.47 1013.25 1013.00 1012.71 1012.32 1011.84 1011.26 1010.59 1009.86 1009.12 1008.40 1007.76 1007.22 1006.80 1006.50 1006.30 1006.18 1006.09 1006.01 1005.91 1005.78 1005.61 1005.41 1005.21 1005.00 1004.80 1004.62 1004.45 1004.28 1004.11 1003.93
1016.66 1016.52 1016.36 1016.18 1015.96 1015.70 1015.41 1015.10 1014.79 1014.49 1014.22 1013.99 1013.80 1013.61 1013.40 1013.15 1012.81 1012.36 1011.81 1011.15 1010.42 1009.66 1008.91 1008.21 1007.61 1007.11 1006.72 1006.43 1006.20 1006.01 1005.83 1005.64 1005.41 1005.17 1004.90 1004.64 1004.39 1004.16 1003.97 1003.79 1003.63 1003.47 1003.31
1017.06 1016.93 1016.78 1016.60 1016.37 1016.11 1015.80 1015.47 1015.14 1014.83 1014.56 1014.33 1014.14 1013.98 1013.81 1013.59 1013.30 1012.90 1012.38 1011.75 1011.04 1010.28 1009.52 1008.79 1008.14 1007.57 1007.10 1006.71 1006.38 1006.08 1005.78 1005.47 1005.13 1004.78 1004.42 1004.07 1003.76 1003.49 1003.26 1003.07 1002.92 1002.78 1002.64
1017.49 1017.38 1017.24 1017.06 1016.83 1016.56 1016.24 1015.89 1015.54 1015.21 1014.92 1014.69 1014.50 1014.34 1014.19 1014.00 1013.74 1013.37 1012.89 1012.30 1011.62 1010.87 1010.11 1009.37 1008.68 1008.07 1007.53 1007.05 1006.62 1006.21 1005.79 1005.36 1004.90 1004.43 1003.96 1003.51 1003.11 1002.77 1002.49 1002.28 1002.12 1002.00 1001.90
1017.96 1017.86 1017.73 1017.56 1017.33 1017.05 1016.72 1016.36 1015.99 1015.64 1015.33 1015.07 1014.86 1014.69 1014.52 1014.34 1014.08 1013.74 1013.28 1012.71 1012.06 1011.33 1010.58 1009.83 1009.12 1008.47 1007.88 1007.33 1006.82 1006.31 1005.79 1005.25 1004.68 1004.09 1003.51 1002.95 1002.45 1002.03 1001.68 1001.43 1001.25 1001.14 1001.08
1018.45 1018.36 1018.24 1018.08 1017.86 1017.57 1017.24 1016.86 1016.47 1016.09 1015.74 1015.45 1015.20 1014.99 1014.80 1014.58 1014.31 1013.95 1013.49 1012.93 1012.28 1011.57 1010.83 1010.08 1009.36 1008.68 1008.06 1007.47 1006.89 1006.32 1005.73 1005.10 1004.44 1003.75 1003.07 1002.42 1001.82 1001.30 1000.88 1000.57 1000.36 1000.24 1000.19
1018.92 1018.85 1018.74 1018.58 1018.37 1018.08 1017.74 1017.36 1016.95 1016.54 1016.16 1015.82 1015.51 1015.24 1014.99 1014.72 1014.40 1014.00 1013.52 1012.94 1012.29 1011.57 1010.82 1010.07 1009.35 1008.66 1008.01 1007.39 1006.78 1006.17 1005.54 1004.86 1004.15 1003.40 1002.65 1001.92 1001.24 1000.64 1000.14 999.75 999.50 999.35 999.31
1019.35 1019.28 1019.18 1019.03 1018.81 1018.54 1018.20 1017.81 1017.39 1016.95 1016.54 1016.14 1015.78 1015.44 1015.10 1014.76 1014.37 1013.92 1013.39 1012.78 1012.09 1011.36 1010.60 1009.84 1009.10 1008.39 1007.73 1007.09 1006.47 1005.85 1005.20 1004.52 1003.79 1003.03 1002.25 1001.48 1000.75 1000.09 999.52 999.07 998.75 998.57 998.50
1019.69 1019.62 1019.52 1019.37 1019.16 1018.90 1018.56 1018.18 1017.75 1017.30 1016.85 1016.40 1015.98 1015.57 1015.15 1014.73 1014.27 1013.74 1013.15 1012.50 1011.78 1011.01 1010.22 1009.44 1008.67 1007.95 1007.26 1006.61 1005.99 1005.37 1004.74 1004.08 1003.38 1002.64 1001.88 1001.12 1000.37 999.68 999.07 998.56 998.18 997.95 997.84
1019.94 1019.86 1019.75 1019.60 1019.40 1019.15 1018.83 1018.45 1018.03 1017.57 1017.09 1016.61 1016.13 1015.65 1015.17 1014.66 1014.13 1013.54 1012.90 1012.19 1011.43 1010.63 1009.80 1008.98 1008.18 1007.41 1006.69 1006.02 1005.38 1004.76 1004.15 1003.54 1002.89 1002.22 1001.52 1000.81 1000.10 999.42 998.80 998.26 997.83 997.53 997.37
1020.11 1020.02 1019.90 1019.75 1019.55 1019.31 1019.00 1018.64 1018.22 1017.76 1017.27 1016.76 1016.24 1015.71 1015.17 1014.60 1014.01 1013.38 1012.69 1011.94 1011.15 1010.30 1009.44 1008.57 1007.71 1006.89 1006.11 1005.39 1004.71 1004.09 1003.50 1002.92 1002.35 1001.76 1001.16 1000.53 999.90 999.27 998.68 998.13 997.67 997.32 997.10
1020.24 1020.13 1020.01 1019.86 1019.67 1019.43 1019.14 1018.79 1018.39 1017.92 1017.42 1016.89 1016.34 1015.77 1015.18 1014.58 1013.95 1013.28 1012.57 1011.80 1010.98 1010.12 1009.21 1008.29 1007.36 1006.46 1005.60 1004.80 1004.07 1003.41 1002.81 1002.26 1001.74 1001.25 1000.75 1000.24 999.72 999.18 998.64 998.12 997.65 997.25 996.96
1020.39 1020.28 1020.15 1020.00 1019.82 1019.59 1019.31 1018.97 1018.56 1018.10 1017.59 1017.03 1016.45 1015.85 1015.24 1014.61 1013.96 1013.28 1012.57 1011.80 1010.97 1010.09 1009.15 1008.17 1007.18 1006.18 1005.22 1004.32 1003.50 1002.77 1002.13 1001.58 1001.10 1000.69 1000.29 999.90 999.49 999.06 998.60 998.13 997.67 997.25 996.91
Thickness
5725 5724 5723 5722 5722 5722 5722 5721 5722 5722 5722 5722 5722 5723 5723 5722 5721 5719 5717 5715 5716 5717 5718 5718 5718 5718 5717 5717 5717 5718 5717 5717 5717 5717 5718 5717 5718 5718 5718 5719 5719 5718 5718
5721 5721 5720 5718 5718 5718 5718 5718 5718 5717 5718 5717 5717 5717 5717 5717 5716 5715 5714 5712 5711 5711 5712 5712 5713 5713 5713 5713 5713 5713 5713 5713 5713 5713 5713 5713 5714 5714 5714 5714 5715 5715 5715
5718 5717 5716 5716 5715 5715 5715 5714 5714 5714 5713 5713 5713 5712 5712 5712 5711 5711 5710 5710 5709 5707 5707 5707 5708 5708 5708 5708 5708 5708 5708 5708 5708 5709 5709 5709 5709 5709 5710 5710 5710 5711 5711
5714 5713 5712 5712 5710 5710 5710 5709 5710 5709 5708 5708 5708 5708 5708 5706 5707 5706 5706 5706 5705 5705 5703 5702 5702 5702 5703 5703 5703 5703 5704 5704 5704 5704 5704 5704 5704 5705 5705 5705 5706 5706 5706
5711 5710 5708 5707 5707 5706 5706 5706 5705 5705 5704 5703 5704 5703 5704 5703 5703 5703 5703 5703 5702 5701 5700 5698 5697 5697 5698 5698 5699 5699 5699 5700 5699 5699 5699 5699 5700 5700 5700 5701 5701 5701 5702
5708 5707 5705 5705 5704 5702 5701 5701 5700 5700 5700 5700 5701 5700 5700 5699 5699 5698 5699 5698 5698 5698 5697 5696 5696 5694 5693 5694 5694 5694 5694 5695 5694 5694 5694 5694 5695 5695 5696 5696 5697 5697 5697
5704 5703 5702 5702 5700 5699 5698 5698 5697 5696 5696 5697 5697 5696 5696 5697 5696 5694 5694 5694 5694 5693 5693 5692 5692 5691 5691 5689 5689 5689 5689 5689 5690 5690 5689 5690 5690 5690 5691 5691 5692 5692 5692
5700 5700 5700 5698 5697 5695 5694 5694 5692 5692 5693 5693 5693 5692 5690 5689 5689 5691 5690 5690 5690 5688 5688 5688 5688 5687 5687 5687 5684 5684 5684 5685 5685 5685 5685 5685 5685 5686 5686 5686 5686 5686 5686
5696 5696 5696 5695 5693 5693 5691 5690 5689 5687 5687 5689 5690 5688 5685 5684 5684 5686 5686 5686 5685 5684 5684 5683 5683 5683 5683 5682 5681 5679 5679 5680 5680 5680 5680 5680 5681 5681 5681 5681 5681 5681 5681
5693 5692 5691 5691 5690 5689 5688 5687 5687 5686 5683 5683 5684 5684 5686 5685 5680 5679 5681 5682 5681 5680 5680 5680 5679 5679 5678 5677 5675 5674 5674 5674 5675 5675 5675 5676 5676 5676 5676 5676 5676 5676 5676
5689 5688 5687 5687 5686 5685 5685 5684 5683 5682 5681 5680 5680 5680 5680 5679 5681 5677 5674 5675 5677 5676 5675 5675 5675 5674 5673 5673 5671 5670 5669 5669 5669 5670 5670 5670 5671 5671 5671 5671 5671 5671 5671
5686 5684 5683 5683 5682 5681 5681 5680 5679 5678 5678 5677 5677 5677 5676 5675 5675 5675 5672 5672 5671 5672 5671 5670 5670 5669 5668 5668 5666 5664 5664 5664 5664 5664 5665 5665 5665 5665 5666 5666 5666 5666 5666
5682 5681 5680 5679 5678 5677 5677 5676 5675 5675 5674 5673 5673 5673 5673 5673 5673 5672 5671 5669 5667 5668 5666 5666 5666 5665 5664 5663 5662 5659 5659 5659 5659 5659 5659 5659 5660 5660 5660 5660 5660 5660 5660
5680 5679 5677 5676 5674 5673 5672 5672 5672 5671 5671 5670 5669 5669 5668 5669 5669 5668 5667 5665 5663 5663 5663 5663 5662 5661 5659 5658 5656 5655 5655 5654 5654 5654 5654 5654 5654 5654 5654 5655 5655 5655 5654
5676 5675 5673 5672 5670 5669 5668 5667 5667 5667 5667 5666 5666 5666 5665 5665 5664 5664 5663 5661 5659 5656 5657 5658 5657 5655 5654 5653 5651 5652 5652 5649 5649 5648 5648 5648 5649 5648 5648 5648 5648 5648 5648
5672 5671 5670 5668 5667 5666 5664 5663 5662 5662 5662 5661 5660 5661 5660 5660 5659 5658 5657 5657 5656 5654 5653 5655 5652 5651 5649 5648 5647 5647 5647 5644 5644 5643 5643 5643 5643 5643 5643 5642 5642 5642 5641
5668 5666 5665 5664 5663 5662 5661 5659 5658 5658 5658 5658 5657 5657 5656 5655 5654 5653 5652 5652 5652 5651 5649 5649 5649 5647 5644 5644 5642 5642 5642 5642 5641 5639 5638 5637 5637 5637 5637 5636 5636 5635 5635
5663 5662 5660 5659 5658 5657 5657 5655 5654 5653 5653 5652 5653 5653 5652 5650 5649 5649 5647 5647 5647 5647 5645 5643 5642 5641 5640 5639 5638 5637 5637 5637 5636 5635 5633 5632 5632 5631 5631 5630 5630 5629 5629
5658 5657 5656 5655 5654 5653 5652 5650 5649 5649 5648 5648 5648 5648 5648 5647 5645 5644 5643 5643 5642 5641 5639 5638 5637 5635 5634 5633 5632 5632 5632 5632 5632 5631 5629 5628 5627 5626 5625 5625 5624 5624 5623
5653 5652 5651 5650 5649 5648 5646 5645 5644 5644 5644 5643 5643 5643 5643 5642 5641 5640 5639 5638 5637 5635 5634 5633 5632 5630 5629 5628 5627 5626 5627 5627 5627 5627 5625 5624 5623 5622 5621 5620 5619 5619 5618
5648 5647 5645 5644 5643 5642 5641 5641 5640 5639 5639 5639 5638 5638 5638 5636 5635 5635 5634 5634 5632 5631 5629 5628 5627 5625 5624 5622 5622 5622 5622 5622 5622 5622 5621 5621 5620 5619 5618 5616 5615 5614 5613
5641 5640 5639 5638 5637 5636 5634 5633 5633 5634 5634 5634 5633 5633 5632 5630 5628 5626 5626 5625 5625 5626 5625 5623 5622 5621 5621 5620 5618 5617 5616 5616 5616 5616 5615 5616 5616 5615 5614 5613 5611 5609 5607
5634 5633 5633 5632 5631 5630 5628 5626 5626 5628 5628 5629 5629 5629 5628 5627 5624 5624 5622 5619 5619 5618 5617 5619 5619 5619 5617 5616 5613 5612 5611 5610 5610 5610 5608 5610 5610 5610 5609 5608 5605 5603 5602
5627 5627 5627 5627 5625 5624 5622 5621 5620 5622 5623 5624 5624 5623 5622 5621 5620 5619 5619 5618 5617 5615 5612 5612 5614 5613 5612 5610 5608 5607 5606 5605 5604 5602 5600 5601 5603 5604 5603 5602 5600 5598 5597
5621 5620 5620 5620 5619 5619 5616 5615 5614 5617 5618 5618 5618 5617 5616 5615 5613 5610 5612 5612 5611 5610 5606 5605 5604 5604 5602 5601 5599 5599 5598 5597 5597 5596 5594 5593 5595 5596 5597 5597 5595 5593 5592
5614 5613 5613 5613 5613 5613 5611 5609 5608 5612 5612 5612 5612 5610 5607 5607 5605 5603 5605 5605 5604 5604 5602 5600 5598 5596 5595 5594 5591 5592 5591 5590 5590 5589 5588 5586 5587 5587 5588 5590 5589 5588 5586